Location: ?????????
(55.6553°N, 38.9075°E)
Time: 14:17:04
(UTC+00:00)

Meteor 2-4 Rocket - Pass Details

Date: 18 October 2019
Orbit: 800 x 908 km, 81.2° (Epoch: 19 November)

Event Time Altitude Azimuth Distance (km) Brightness Sun altitude
Exits shadow 00:22:16 47° 351° (N) 1,131 4.4 -30.4°
Drops below altitude 10° 00:26:25 10° 11° (N) 2,526 6.6 -29.9°
Sets 00:28:55 0° 14° (NNE) 3,484 7.5 -29.6°
